[[{"header":{"parameterUnit":"m.s-1","parameterCategory":1,"la1":30.2991,"la2":30.254,"lo1":-89.0895,"lo2":-89.0444,"dy":0.0017,"dx":0.0017,"nx":28,"ny":28,"refTime":"2023-08-07T03:00:00:Z","depth":0,"parameterNumber":2,"parameterNumberName":"U-component_of_WINDS"},"data":[0,0,0,0,0,0,0,0,0,0,0,0,0,0,0,0,0,0,0,0,0,0,0,0,0,0,0,0,0,0,0,0,0,0,0,0,0,0,0,0,0,0,0,0,0,0,0,0,0,0,0,0,0,0,0,0,0,0,4.0164,4.0165,0,4.0266,4.0268,4.0269,4.0183,4.0179,4.0176,4.0173,4.028,4.0286,4.0292,0,0,0,0,0,0,0,0,0,0,0,0,0,3.9891,3.9897,4.0163,4.0165,4.0166,4.0266,4.0268,4.0269,4.0184,4.0179,4.0175,4.0171,4.0278,4.0285,4.0293,0,0,0,0,0,0,0,0,0,0,0,0,0,4.0004,3.9899,4.0163,4.0135,4.0134,4.0266,4.0268,4.0269,4.0185,4.0179,4.0174,4.0169,4.0276,4.0285,4.0294,4.0459,0,0,4.0322,4.0326,0,0,0,0,0,0,0,0,3.9997,4.0014,4.0138,4.0138,4.0136,4.0206,4.0211,4.0333,4.0186,4.0166,4.0172,4.0166,4.026,4.027,4.0301,4.0464,4.0469,4.0323,4.0329,4.0333,4.0335,0,0,0,0,0,0,0,3.999,4.0009,4.0204,4.014,4.0139,4.0117,4.0127,4.0234,4.0242,4.0167,4.0161,4.0174,4.0258,4.0293,4.0303,4.047,4.0323,4.0331,4.0337,4.034,4.0768,4.0774,0,0,0,0,0,0,3.9985,4.0003,4.0201,4.0207,4.0052,4.0127,4.0138,4.0189,4.024,4.0243,4.0179,4.017,4.0279,4.0293,4.0307,4.05,4.0333,4.0341,4.0347,4.0762,4.0769,4.0776,0,0,0,0,0,0,3.9979,4.0003,4.0197,4.0103,4.0126,4.0137,4.0196,4.0194,4.0228,4.0249,4.025,4.0212,4.0276,4.0294,4.042,4.0502,4.0346,4.0354,4.0756,4.0765,4.0772,4.0889,0,0,0,0,0,0,3.9972,4.0002,4.0065,4.0106,4.0132,4.031,4.0201,4.02,4.0244,4.0234,4.0281,4.0284,4.0273,4.0407,4.043,4.0512,4.0361,4.0748,4.076,4.077,4.0878,4.0901,4.092,0,0,0,0,0,3.9962,4.0096,4.0069,4.0093,4.0211,4.0314,4.0329,4.0314,4.0251,4.0314,4.0327,4.0282,4.049,4.0421,4.0446,4.0532,4.0743,4.0756,4.0769,4.0869,4.0896,4.092,0,0,0,0,0,0,4.0067,4.0101,4.0071,4.0222,4.0266,4.03,4.0379,4.0344,4.0407,4.0395,4.0373,4.0385,4.0517,4.0538,4.046,4.0692,4.0606,4.0625,4.0674,4.07,4.0721,4.0712,4.0369,0,0,0,0,0,4.0107,4.0188,4.0213,4.0343,4.0367,4.0369,4.0414,4.0397,4.0442,4.0461,4.0483,4.0528,4.0603,4.0653,4.0724,4.0881,4.0888,4.0953,4.0974,4.0991,4.1006,4.1087,4.1114,4.0818,4.0818,4.0818,0,0,4.0192,4.022,4.0273,4.0365,4.0397,4.048,4.0386,4.0479,4.0539,4.0475,4.0594,4.0612,4.0661,4.0803,4.0866,4.0824,4.109,4.1007,4.1021,4.1027,4.1103,4.1131,4.1156,4.0827,4.0825,4.0824,0,0,4.0387,4.0418,4.0527,4.0561,4.0609,4.061,4.0636,4.0675,4.0683,4.0803,4.0755,4.0827,4.0958,4.0993,4.1028,4.1233,4.1192,4.1257,4.1366,4.1444,4.1468,4.1488,4.1557,4.1583,4.1273,4.1273,4.1273,0,4.0486,4.0609,4.0589,4.0683,4.0724,4.0667,4.0777,4.081,4.088,4.0909,4.0861,4.102,4.105,4.1196,4.1245,4.1277,4.1304,4.125,4.1466,4.1486,4.1505,4.1571,4.1597,4.128,4.1279,4.1278,4.1278,0,4.0726,4.0812,4.0894,4.096,4.101,4.1113,4.1106,4.1159,4.1138,4.1143,4.1263,4.1296,4.137,4.1404,4.1386,4.1547,4.1518,4.1469,4.1382,4.1541,4.1602,4.1627,4.129,4.1288,4.1286,4.1284,0,0,4.0991,4.1042,4.1072,4.1099,4.1147,4.1213,4.1311,4.1382,4.1426,4.1476,4.1555,4.1666,4.1618,4.1658,4.1643,4.1712,4.1866,4.1653,4.1653,4.1688,4.2042,4.2077,4.2107,4.184,4.1845,4.1849,4.2036,0,4.1185,4.1355,4.1337,4.1498,4.1575,4.1521,4.1606,4.1644,4.1651,4.1716,4.1724,4.18,4.1734,4.1757,4.1823,4.1834,4.1937,4.182,4.1912,4.1916,4.1899,4.2139,4.2178,4.2353,4.2061,4.2065,4.2068,0,4.1435,4.149,4.1658,4.169,4.1722,4.1798,4.1859,4.1924,4.1964,4.1964,4.2007,4.1978,4.2075,4.1987,4.2118,4.2039,4.2076,4.2086,4.2092,4.2099,4.2,4.2149,4.2409,4.2434,4.2106,4.2103,4.21,0,4.1606,4.1723,4.1837,4.1863,4.1905,4.1959,4.1979,4.2014,4.2056,4.211,4.2136,4.2202,4.2237,4.2287,4.2276,4.2213,4.2409,4.2321,4.2409,4.2409,4.2451,4.2448,4.2718,4.248,4.248,4.2479,4.2479,0,4.1823,4.1927,4.1914,4.1985,4.2098,4.2077,4.219,4.2203,4.2234,4.2305,4.2263,4.233,4.2313,4.2379,4.2371,4.2478,4.2496,4.2497,4.2493,4.2499,4.2498,4.2521,4.2507,4.2486,4.2485,4.2483,4.2482,0,4.2034,4.203,4.215,4.2178,4.2187,4.227,4.2293,4.2358,4.236,4.245,4.2469,4.2473,4.2548,4.2542,4.2628,4.2622,4.2754,4.2737,4.2739,4.2735,4.2822,4.2813,4.3113,4.315,4.2891,4.2894,4.2896,0,4.2171,4.2249,4.2285,4.2328,4.2351,4.2422,4.2464,4.2446,4.2491,4.254,4.2599,4.267,4.2725,4.2847,4.2857,4.2921,4.2904,4.3005,4.2913,4.2915,4.2901,4.2895,4.2901,4.3022,4.3025,4.3028,4.303,0,4.2414,4.2407,4.2469,4.2529,4.2579,4.2626,4.2669,4.2707,4.2692,4.2745,4.282,4.2863,4.2948,4.3017,4.3077,4.3097,4.306,4.3058,4.3081,4.3087,4.3084,4.3083,4.2785,4.3051,4.3049,4.3047,4.3046,4.3045,4.259,4.2655,4.2689,4.2758,4.2787,4.2827,4.2888,4.2896,4.2958,4.3025,4.301,4.3094,4.3129,4.3206,4.3231,4.3295,4.3259,4.3293,4.3302,4.331,4.3318,4.3075,4.3307,4.3306,4.3305,4.3305,4.3304,0,4.2828,4.2846,4.2909,4.2968,4.3022,4.2982,4.3026,4.3073,4.3147,4.3182,4.3236,4.3321,4.3387,4.3401,4.3465,4.3513,4.3498,4.353,4.3525,4.3529,4.3349,4.3321,4.3541,4.3541,4.3541,4.3541,4.3541,4.3541,4.2957,4.3064,4.306,4.318,4.3197,4.3278,4.3306,4.3341,4.3369,4.3464,4.3519,4.3527,4.3553,4.3617,4.3675,4.3678,4.3701,4.374,4.3736,4.3566,4.3543,4.352,4.3493,4.3746,4.3747,4.391,4.3911,4.3913]},{"header":{"parameterUnit":"m.s-1","parameterCategory":1,"la1":30.2991,"la2":30.254,"lo1":-89.0895,"lo2":-89.0444,"dy":0.0017,"dx":0.0017,"nx":28,"ny":28,"refTime":"2023-08-07T03:00:00:Z","depth":0,"parameterNumber":3,"parameterNumberName":"V-component_of_WINDS"},"data":[0,0,0,0,0,0,0,0,0,0,0,0,0,0,0,0,0,0,0,0,0,0,0,0,0,0,0,0,0,0,0,0,0,0,0,0,0,0,0,0,0,0,0,0,0,0,0,0,0,0,0,0,0,0,0,0,0,0,5.8141,5.8142,0,5.8238,5.8239,5.824,5.8201,5.8198,5.8196,5.8194,5.8286,5.8291,5.8295,0,0,0,0,0,0,0,0,0,0,0,0,0,5.7913,5.7918,5.8141,5.8142,5.8143,5.8238,5.8239,5.824,5.8201,5.8198,5.8195,5.8193,5.8285,5.829,5.8296,0,0,0,0,0,0,0,0,0,0,0,0,0,5.8011,5.7919,5.8141,5.8135,5.8136,5.8237,5.8239,5.8241,5.8202,5.8198,5.8195,5.8192,5.8283,5.829,5.8296,5.8407,0,0,5.8317,5.832,0,0,0,0,0,0,0,0,5.8006,5.8019,5.8135,5.8136,5.8137,5.8204,5.8192,5.8296,5.8202,5.8176,5.8194,5.819,5.8261,5.8269,5.8295,5.8411,5.8415,5.8318,5.8322,5.8325,5.8327,0,0,0,0,0,0,0,5.7999,5.8015,5.8179,5.8137,5.8138,5.8125,5.8135,5.8212,5.8236,5.8178,5.8176,5.8188,5.8261,5.8288,5.8297,5.8416,5.8318,5.8324,5.8328,5.8331,5.8623,5.8627,0,0,0,0,0,0,5.7993,5.801,5.8176,5.8182,5.8062,5.8132,5.8143,5.8185,5.8236,5.824,5.8191,5.8186,5.8278,5.8289,5.83,5.8429,5.8325,5.8331,5.8335,5.8619,5.8624,5.8628,0,0,0,0,0,0,5.7988,5.8008,5.8172,5.8095,5.8115,5.814,5.8187,5.8189,5.8217,5.8245,5.8248,5.8215,5.8276,5.829,5.838,5.8432,5.8334,5.8341,5.8615,5.8621,5.8626,5.8691,0,0,0,0,0,0,5.7982,5.8007,5.8051,5.8097,5.8119,5.8253,5.8191,5.8194,5.823,5.8224,5.8269,5.8273,5.8274,5.837,5.8387,5.844,5.8346,5.861,5.8618,5.8624,5.8684,5.8698,5.871,0,0,0,0,0,5.7974,5.8065,5.8054,5.8074,5.8176,5.8257,5.8269,5.8271,5.8234,5.8277,5.8295,5.8271,5.8424,5.8379,5.8398,5.8454,5.8607,5.8616,5.8624,5.8678,5.8695,5.8709,0,0,0,0,0,0,5.8024,5.8071,5.8059,5.8168,5.8209,5.825,5.8305,5.829,5.834,5.8332,5.833,5.8341,5.8433,5.8452,5.8402,5.8561,5.8509,5.8522,5.8545,5.8561,5.8574,5.8566,5.8352,0,0,0,0,0,5.8048,5.8112,5.8149,5.8242,5.8263,5.828,5.8316,5.8314,5.8354,5.8371,5.8395,5.8434,5.8489,5.8527,5.858,5.8687,5.8694,5.8734,5.8747,5.8757,5.8767,5.8821,5.8838,5.8655,5.8655,5.8655,0,0,5.8098,5.8131,5.8172,5.8252,5.8284,5.8347,5.8295,5.8365,5.841,5.8381,5.8466,5.8486,5.8528,5.8626,5.867,5.8645,5.882,5.8768,5.8776,5.878,5.8831,5.8849,5.8864,5.866,5.8659,5.8658,0,0,5.822,5.8254,5.8333,5.8365,5.8413,5.8424,5.8443,5.8486,5.8498,5.8585,5.8562,5.8615,5.8713,5.8743,5.8772,5.8902,5.8881,5.892,5.8986,5.9038,5.9052,5.9065,5.9108,5.9124,5.893,5.893,5.893,0,5.8275,5.8372,5.8375,5.8446,5.848,5.8458,5.8535,5.8566,5.8628,5.8651,5.8623,5.8743,5.877,5.8873,5.8904,5.8929,5.8948,5.8914,5.9051,5.9064,5.9075,5.9116,5.9133,5.8934,5.8934,5.8933,5.8933,0,5.8435,5.8502,5.856,5.8622,5.8663,5.8737,5.8748,5.8788,5.8782,5.8795,5.8881,5.8913,5.897,5.8995,5.899,5.9096,5.9078,5.9051,5.8998,5.9097,5.9135,5.9151,5.894,5.8939,5.8937,5.8936,0,0,5.8592,5.8654,5.8674,5.8701,5.8751,5.8801,5.8873,5.8931,5.8964,5.9007,5.9064,5.9147,5.912,5.9152,5.9149,5.9196,5.9293,5.9162,5.9163,5.9182,5.9407,5.9426,5.9445,5.928,5.9283,5.9286,5.9403,0,5.8715,5.8843,5.8846,5.8961,5.9021,5.8999,5.9061,5.9096,5.9109,5.9159,5.9173,5.923,5.9193,5.9211,5.9257,5.9272,5.9338,5.9264,5.9329,5.9332,5.9317,5.9465,5.9486,5.9595,5.9418,5.9421,5.9423,0,5.8877,5.8926,5.9048,5.9086,5.9111,5.9167,5.9219,5.9268,5.9307,5.9312,5.9347,5.9337,5.9406,5.9353,5.9445,5.9395,5.9422,5.9433,5.9437,5.9441,5.9381,5.947,5.963,5.9645,5.9447,5.9445,5.9443,0,5.8974,5.9071,5.9155,5.9179,5.9227,5.9266,5.9288,5.9323,5.9357,5.9401,5.9422,5.9474,5.9501,5.954,5.9542,5.9504,5.9634,5.9582,5.9637,5.9637,5.9664,5.9662,5.9827,5.9686,5.9686,5.9686,5.9685,0,5.9111,5.9185,5.9199,5.9251,5.9332,5.9334,5.9413,5.9431,5.9462,5.9514,5.9498,5.9547,5.9549,5.9597,5.9599,5.9673,5.9686,5.969,5.9689,5.969,5.9689,5.9706,5.9697,5.969,5.9689,5.9688,5.9687,0,5.9233,5.9246,5.9336,5.9374,5.9385,5.9443,5.9474,5.9521,5.9533,5.9598,5.9614,5.963,5.9686,5.9693,5.9759,5.976,5.9848,5.984,5.9835,5.9833,5.9887,5.988,6.0067,6.009,5.9936,5.9938,5.9939,0,5.9318,5.9374,5.9418,5.9453,5.9477,5.9533,5.9567,5.957,5.9606,5.9652,5.9693,5.9748,5.9792,5.9882,5.9898,5.9946,5.9938,6.0,5.9945,5.9943,5.9935,5.993,5.9934,6.001,6.0011,6.0013,6.0014,0,5.9465,5.9468,5.952,5.9573,5.9614,5.9656,5.9694,5.9723,5.973,5.977,5.9828,5.9862,5.9929,5.9982,6.003,6.0048,6.0031,6.0031,6.0046,6.0046,6.0039,6.004,5.9861,6.0026,6.0025,6.0024,6.0024,6.0023,5.9569,5.9617,5.9655,5.9711,5.9741,5.9777,5.9822,5.9839,5.9888,5.9944,5.9942,6.0004,6.0038,6.01,6.0122,6.0169,6.0148,6.0171,6.0176,6.018,6.0184,6.0034,6.0178,6.0178,6.0178,6.0177,6.0177,0,5.9713,5.9736,5.9788,5.9843,5.9886,5.9869,5.991,5.9946,6.0003,6.0036,6.008,6.0144,6.0195,6.0215,6.0264,6.0298,6.0291,6.031,6.0306,6.031,6.0202,6.0183,6.0315,6.0314,6.0314,6.0314,6.0314,6.0314,5.9792,5.9871,5.9879,5.9971,5.9993,6.0055,6.008,6.0111,6.0138,6.0211,6.0254,6.0268,6.0294,6.0345,6.039,6.0394,6.0411,6.0433,6.0433,6.0332,6.0318,6.0304,6.0286,6.0438,6.0438,6.0537,6.0538,6.0539]}]]